Location: Leiter
(44.7178°N, 106.2687°W)
Time: 17:36:14
(UTC+00:00)

STARS - Pass Details

Date: 02 July 2022
Orbit: 620 x 637 km, 98.2° (Epoch: 18 August)

Event Time Altitude Azimuth Distance (km) Brightness Sun altitude
Rises 06:42:09 0° 3° (N) 2,934 ? -22.0°
Reaches altitude 10° 06:44:35 10° 352° (N) 2,018 ? -22.0°
Maximum altitude 06:48:20 28° 293° (WNW) 1,178 ? -22.1°
Enters shadow 06:50:17 20° 252° (WSW) 1,451 ? -22.1°
